Location: Juzet
(42.9779°N, 0.7597°E)
Time: 01:41:42
(UTC+00:00)

Helios 1A - Pass Details

Date: 14 July 2020
Orbit: 587 x 600 km, 98.2° (Epoch: 07 August)

Event Time Altitude Azimuth Distance (km) Brightness Sun altitude
Exits shadow 00:38:50 30° 288° (WNW) 1,079 4.3 -24.9°
Drops below altitude 10° 00:41:44 10° 327° (NNW) 1,924 6.2 -24.8°
Sets 00:44:05 0° 338° (NNW) 2,831 7.3 -24.7°
